Index of /20260503/WXO-DD/model_rdps/10km/18/060
Name Last modified Size Description
Parent Directory -
20260503T18Z_MSC_RDPS_AbsoluteVorticity_IsbL-0250_RLatLon0.09_PT060H.grib2 2026-05-03 20:57 603K
20260503T18Z_MSC_RDPS_AbsoluteVorticity_IsbL-0500_RLatLon0.09_PT060H.grib2 2026-05-03 20:57 559K
20260503T18Z_MSC_RDPS_AbsoluteVorticity_IsbL-0700_RLatLon0.09_PT060H.grib2 2026-05-03 20:57 610K
20260503T18Z_MSC_RDPS_AbsoluteVorticity_IsbL-0850_RLatLon0.09_PT060H.grib2 2026-05-03 20:57 784K
20260503T18Z_MSC_RDPS_AirTemp_AGL-120m_RLatLon0.09_PT060H.grib2 2026-05-03 20:57 371K
20260503T18Z_MSC_RDPS_AirTemp_AGL-2m_RLatLon0.09_PT060H.grib2 2026-05-03 20:57 623K
20260503T18Z_MSC_RDPS_AirTemp_AGL-40m_RLatLon0.09_PT060H.grib2 2026-05-03 20:57 384K
20260503T18Z_MSC_RDPS_AirTemp_AGL-80m_RLatLon0.09_PT060H.grib2 2026-05-03 20:57 377K
20260503T18Z_MSC_RDPS_AirTemp_IsbL-0001_RLatLon0.09_PT060H.grib2 2026-05-03 20:57 297K
20260503T18Z_MSC_RDPS_AirTemp_IsbL-0005_RLatLon0.09_PT060H.grib2 2026-05-03 20:57 286K
20260503T18Z_MSC_RDPS_AirTemp_IsbL-0010_RLatLon0.09_PT060H.grib2 2026-05-03 20:57 295K
20260503T18Z_MSC_RDPS_AirTemp_IsbL-0020_RLatLon0.09_PT060H.grib2 2026-05-03 20:57 314K
20260503T18Z_MSC_RDPS_AirTemp_IsbL-0030_RLatLon0.09_PT060H.grib2 2026-05-03 20:57 332K
20260503T18Z_MSC_RDPS_AirTemp_IsbL-0050_RLatLon0.09_PT060H.grib2 2026-05-03 20:57 314K
20260503T18Z_MSC_RDPS_AirTemp_IsbL-0100_RLatLon0.09_PT060H.grib2 2026-05-03 20:57 422K
20260503T18Z_MSC_RDPS_AirTemp_IsbL-0150_RLatLon0.09_PT060H.grib2 2026-05-03 20:57 414K
20260503T18Z_MSC_RDPS_AirTemp_IsbL-0175_RLatLon0.09_PT060H.grib2 2026-05-03 20:57 406K
20260503T18Z_MSC_RDPS_AirTemp_IsbL-0200_RLatLon0.09_PT060H.grib2 2026-05-03 20:57 408K
20260503T18Z_MSC_RDPS_AirTemp_IsbL-0225_RLatLon0.09_PT060H.grib2 2026-05-03 20:57 409K
20260503T18Z_MSC_RDPS_AirTemp_IsbL-0250_RLatLon0.09_PT060H.grib2 2026-05-03 20:57 415K
20260503T18Z_MSC_RDPS_AirTemp_IsbL-0275_RLatLon0.09_PT060H.grib2 2026-05-03 20:57 398K
20260503T18Z_MSC_RDPS_AirTemp_IsbL-0300_RLatLon0.09_PT060H.grib2 2026-05-03 20:57 405K
20260503T18Z_MSC_RDPS_AirTemp_IsbL-0350_RLatLon0.09_PT060H.grib2 2026-05-03 20:57 425K
20260503T18Z_MSC_RDPS_AirTemp_IsbL-0400_RLatLon0.09_PT060H.grib2 2026-05-03 20:57 429K
20260503T18Z_MSC_RDPS_AirTemp_IsbL-0450_RLatLon0.09_PT060H.grib2 2026-05-03 20:57 435K
20260503T18Z_MSC_RDPS_AirTemp_IsbL-0500_RLatLon0.09_PT060H.grib2 2026-05-03 20:57 444K
20260503T18Z_MSC_RDPS_AirTemp_IsbL-0550_RLatLon0.09_PT060H.grib2 2026-05-03 20:57 460K
20260503T18Z_MSC_RDPS_AirTemp_IsbL-0600_RLatLon0.09_PT060H.grib2 2026-05-03 20:57 441K
20260503T18Z_MSC_RDPS_AirTemp_IsbL-0650_RLatLon0.09_PT060H.grib2 2026-05-03 20:57 457K
20260503T18Z_MSC_RDPS_AirTemp_IsbL-0700_RLatLon0.09_PT060H.grib2 2026-05-03 20:57 373K
20260503T18Z_MSC_RDPS_AirTemp_IsbL-0750_RLatLon0.09_PT060H.grib2 2026-05-03 20:57 405K
20260503T18Z_MSC_RDPS_AirTemp_IsbL-0800_RLatLon0.09_PT060H.grib2 2026-05-03 20:57 449K
20260503T18Z_MSC_RDPS_AirTemp_IsbL-0850_RLatLon0.09_PT060H.grib2 2026-05-03 20:57 508K
20260503T18Z_MSC_RDPS_AirTemp_IsbL-0875_RLatLon0.09_PT060H.grib2 2026-05-03 20:57 529K
20260503T18Z_MSC_RDPS_AirTemp_IsbL-0900_RLatLon0.09_PT060H.grib2 2026-05-03 20:57 535K
20260503T18Z_MSC_RDPS_AirTemp_IsbL-0925_RLatLon0.09_PT060H.grib2 2026-05-03 20:57 527K
20260503T18Z_MSC_RDPS_AirTemp_IsbL-0950_RLatLon0.09_PT060H.grib2 2026-05-03 20:57 521K
20260503T18Z_MSC_RDPS_AirTemp_IsbL-0970_RLatLon0.09_PT060H.grib2 2026-05-03 20:57 510K
20260503T18Z_MSC_RDPS_AirTemp_IsbL-0985_RLatLon0.09_PT060H.grib2 2026-05-03 20:57 497K
20260503T18Z_MSC_RDPS_AirTemp_IsbL-1000_RLatLon0.09_PT060H.grib2 2026-05-03 20:57 479K
20260503T18Z_MSC_RDPS_AirTemp_IsbL-1015_RLatLon0.09_PT060H.grib2 2026-05-03 20:57 484K
20260503T18Z_MSC_RDPS_Albedo_Sfc_RLatLon0.09_PT060H.grib2 2026-05-03 20:57 155K
20260503T18Z_MSC_RDPS_CAPE_Sfc_RLatLon0.09_PT060H.grib2 2026-05-03 20:57 1.7M
20260503T18Z_MSC_RDPS_CIN_Sfc_RLatLon0.09_PT060H.grib2 2026-05-03 20:57 1.2M
20260503T18Z_MSC_RDPS_CloudWater_EAtm_RLatLon0.09_PT060H.grib2 2026-05-03 20:57 219K
20260503T18Z_MSC_RDPS_ConvectivePrecip-Accum_Sfc_RLatLon0.09_PT060H.grib2 2026-05-03 20:57 1.2M
20260503T18Z_MSC_RDPS_DewPointDepression_AGL-2m_RLatLon0.09_PT060H.grib2 2026-05-03 20:57 398K
20260503T18Z_MSC_RDPS_DewPointDepression_IsbL-0001_RLatLon0.09_PT060H.grib2 2026-05-03 20:57 193
20260503T18Z_MSC_RDPS_DewPointDepression_IsbL-0005_RLatLon0.09_PT060H.grib2 2026-05-03 20:57 193
20260503T18Z_MSC_RDPS_DewPointDepression_IsbL-0010_RLatLon0.09_PT060H.grib2 2026-05-03 20:57 193
20260503T18Z_MSC_RDPS_DewPointDepression_IsbL-0020_RLatLon0.09_PT060H.grib2 2026-05-03 20:57 193
20260503T18Z_MSC_RDPS_DewPointDepression_IsbL-0030_RLatLon0.09_PT060H.grib2 2026-05-03 20:57 193
20260503T18Z_MSC_RDPS_DewPointDepression_IsbL-0050_RLatLon0.09_PT060H.grib2 2026-05-03 20:57 78K
20260503T18Z_MSC_RDPS_DewPointDepression_IsbL-0100_RLatLon0.09_PT060H.grib2 2026-05-03 20:57 111K
20260503T18Z_MSC_RDPS_DewPointDepression_IsbL-0150_RLatLon0.09_PT060H.grib2 2026-05-03 20:57 141K
20260503T18Z_MSC_RDPS_DewPointDepression_IsbL-0175_RLatLon0.09_PT060H.grib2 2026-05-03 20:57 184K
20260503T18Z_MSC_RDPS_DewPointDepression_IsbL-0200_RLatLon0.09_PT060H.grib2 2026-05-03 20:57 218K
20260503T18Z_MSC_RDPS_DewPointDepression_IsbL-0225_RLatLon0.09_PT060H.grib2 2026-05-03 20:57 252K
20260503T18Z_MSC_RDPS_DewPointDepression_IsbL-0250_RLatLon0.09_PT060H.grib2 2026-05-03 20:57 297K
20260503T18Z_MSC_RDPS_DewPointDepression_IsbL-0275_RLatLon0.09_PT060H.grib2 2026-05-03 20:57 308K
20260503T18Z_MSC_RDPS_DewPointDepression_IsbL-0300_RLatLon0.09_PT060H.grib2 2026-05-03 20:57 325K
20260503T18Z_MSC_RDPS_DewPointDepression_IsbL-0350_RLatLon0.09_PT060H.grib2 2026-05-03 20:57 330K
20260503T18Z_MSC_RDPS_DewPointDepression_IsbL-0400_RLatLon0.09_PT060H.grib2 2026-05-03 20:57 341K
20260503T18Z_MSC_RDPS_DewPointDepression_IsbL-0450_RLatLon0.09_PT060H.grib2 2026-05-03 20:57 343K
20260503T18Z_MSC_RDPS_DewPointDepression_IsbL-0500_RLatLon0.09_PT060H.grib2 2026-05-03 20:57 347K
20260503T18Z_MSC_RDPS_DewPointDepression_IsbL-0550_RLatLon0.09_PT060H.grib2 2026-05-03 20:57 358K
20260503T18Z_MSC_RDPS_DewPointDepression_IsbL-0600_RLatLon0.09_PT060H.grib2 2026-05-03 20:57 367K
20260503T18Z_MSC_RDPS_DewPointDepression_IsbL-0650_RLatLon0.09_PT060H.grib2 2026-05-03 20:57 370K
20260503T18Z_MSC_RDPS_DewPointDepression_IsbL-0700_RLatLon0.09_PT060H.grib2 2026-05-03 20:57 378K
20260503T18Z_MSC_RDPS_DewPointDepression_IsbL-0750_RLatLon0.09_PT060H.grib2 2026-05-03 20:57 399K
20260503T18Z_MSC_RDPS_DewPointDepression_IsbL-0800_RLatLon0.09_PT060H.grib2 2026-05-03 20:57 429K
20260503T18Z_MSC_RDPS_DewPointDepression_IsbL-0850_RLatLon0.09_PT060H.grib2 2026-05-03 20:57 474K
20260503T18Z_MSC_RDPS_DewPointDepression_IsbL-0875_RLatLon0.09_PT060H.grib2 2026-05-03 20:57 475K
20260503T18Z_MSC_RDPS_DewPointDepression_IsbL-0900_RLatLon0.09_PT060H.grib2 2026-05-03 20:57 462K
20260503T18Z_MSC_RDPS_DewPointDepression_IsbL-0925_RLatLon0.09_PT060H.grib2 2026-05-03 20:57 447K
20260503T18Z_MSC_RDPS_DewPointDepression_IsbL-0950_RLatLon0.09_PT060H.grib2 2026-05-03 20:57 437K
20260503T18Z_MSC_RDPS_DewPointDepression_IsbL-0970_RLatLon0.09_PT060H.grib2 2026-05-03 20:57 431K
20260503T18Z_MSC_RDPS_DewPointDepression_IsbL-0985_RLatLon0.09_PT060H.grib2 2026-05-03 20:57 427K
20260503T18Z_MSC_RDPS_DewPointDepression_IsbL-1000_RLatLon0.09_PT060H.grib2 2026-05-03 20:57 421K
20260503T18Z_MSC_RDPS_DewPointDepression_IsbL-1015_RLatLon0.09_PT060H.grib2 2026-05-03 20:57 413K
20260503T18Z_MSC_RDPS_DewPoint_AGL-2m_RLatLon0.09_PT060H.grib2 2026-05-03 20:57 300K
20260503T18Z_MSC_RDPS_DownwardLongwaveRadiationFlux-Accum_Sfc_RLatLon0.09_PT060H.grib2 2026-05-03 20:57 408K
20260503T18Z_MSC_RDPS_DownwardShortwaveRadiationFlux-Accum_NTAtm_RLatLon0.09_PT060H.grib2 2026-05-03 20:57 107K
20260503T18Z_MSC_RDPS_DownwardShortwaveRadiationFlux-Accum_Sfc_RLatLon0.09_PT060H.grib2 2026-05-03 20:57 604K
20260503T18Z_MSC_RDPS_FreezingRain-Accum12h_Sfc_RLatLon0.09_PT060H.grib2 2026-05-03 20:57 65K
20260503T18Z_MSC_RDPS_FreezingRain-Accum1h_Sfc_RLatLon0.09_PT060H.grib2 2026-05-03 20:57 28K
20260503T18Z_MSC_RDPS_FreezingRain-Accum24h_Sfc_RLatLon0.09_PT060H.grib2 2026-05-03 20:57 109K
20260503T18Z_MSC_RDPS_FreezingRain-Accum3h_Sfc_RLatLon0.09_PT060H.grib2 2026-05-03 20:57 32K
20260503T18Z_MSC_RDPS_FreezingRain-Accum6h_Sfc_RLatLon0.09_PT060H.grib2 2026-05-03 20:57 48K
20260503T18Z_MSC_RDPS_FreezingRain-Accum_Sfc_RLatLon0.09_PT060H.grib2 2026-05-03 20:57 180K
20260503T18Z_MSC_RDPS_GeopotentialHeight_IsbL-0001_RLatLon0.09_PT060H.grib2 2026-05-03 20:57 236K
20260503T18Z_MSC_RDPS_GeopotentialHeight_IsbL-0005_RLatLon0.09_PT060H.grib2 2026-05-03 20:57 335K
20260503T18Z_MSC_RDPS_GeopotentialHeight_IsbL-0010_RLatLon0.09_PT060H.grib2 2026-05-03 20:57 336K
20260503T18Z_MSC_RDPS_GeopotentialHeight_IsbL-0020_RLatLon0.09_PT060H.grib2 2026-05-03 20:57 304K
20260503T18Z_MSC_RDPS_GeopotentialHeight_IsbL-0030_RLatLon0.09_PT060H.grib2 2026-05-03 20:57 402K
20260503T18Z_MSC_RDPS_GeopotentialHeight_IsbL-0050_RLatLon0.09_PT060H.grib2 2026-05-03 20:57 307K
20260503T18Z_MSC_RDPS_GeopotentialHeight_IsbL-0100_RLatLon0.09_PT060H.grib2 2026-05-03 20:57 283K
20260503T18Z_MSC_RDPS_GeopotentialHeight_IsbL-0150_RLatLon0.09_PT060H.grib2 2026-05-03 20:57 226K
20260503T18Z_MSC_RDPS_GeopotentialHeight_IsbL-0175_RLatLon0.09_PT060H.grib2 2026-05-03 20:57 229K
20260503T18Z_MSC_RDPS_GeopotentialHeight_IsbL-0200_RLatLon0.09_PT060H.grib2 2026-05-03 20:57 233K
20260503T18Z_MSC_RDPS_GeopotentialHeight_IsbL-0225_RLatLon0.09_PT060H.grib2 2026-05-03 20:57 234K
20260503T18Z_MSC_RDPS_GeopotentialHeight_IsbL-0250_RLatLon0.09_PT060H.grib2 2026-05-03 20:57 235K
20260503T18Z_MSC_RDPS_GeopotentialHeight_IsbL-0275_RLatLon0.09_PT060H.grib2 2026-05-03 20:57 234K
20260503T18Z_MSC_RDPS_GeopotentialHeight_IsbL-0300_RLatLon0.09_PT060H.grib2 2026-05-03 20:57 234K
20260503T18Z_MSC_RDPS_GeopotentialHeight_IsbL-0350_RLatLon0.09_PT060H.grib2 2026-05-03 20:57 230K
20260503T18Z_MSC_RDPS_GeopotentialHeight_IsbL-0400_RLatLon0.09_PT060H.grib2 2026-05-03 20:57 227K
20260503T18Z_MSC_RDPS_GeopotentialHeight_IsbL-0450_RLatLon0.09_PT060H.grib2 2026-05-03 20:57 296K
20260503T18Z_MSC_RDPS_GeopotentialHeight_IsbL-0500_RLatLon0.09_PT060H.grib2 2026-05-03 20:57 292K
20260503T18Z_MSC_RDPS_GeopotentialHeight_IsbL-0550_RLatLon0.09_PT060H.grib2 2026-05-03 20:57 289K
20260503T18Z_MSC_RDPS_GeopotentialHeight_IsbL-0600_RLatLon0.09_PT060H.grib2 2026-05-03 20:57 284K
20260503T18Z_MSC_RDPS_GeopotentialHeight_IsbL-0650_RLatLon0.09_PT060H.grib2 2026-05-03 20:57 256K
20260503T18Z_MSC_RDPS_GeopotentialHeight_IsbL-0700_RLatLon0.09_PT060H.grib2 2026-05-03 20:57 337K
20260503T18Z_MSC_RDPS_GeopotentialHeight_IsbL-0750_RLatLon0.09_PT060H.grib2 2026-05-03 20:57 340K
20260503T18Z_MSC_RDPS_GeopotentialHeight_IsbL-0800_RLatLon0.09_PT060H.grib2 2026-05-03 20:57 350K
20260503T18Z_MSC_RDPS_GeopotentialHeight_IsbL-0850_RLatLon0.09_PT060H.grib2 2026-05-03 20:57 362K
20260503T18Z_MSC_RDPS_GeopotentialHeight_IsbL-0875_RLatLon0.09_PT060H.grib2 2026-05-03 20:57 363K
20260503T18Z_MSC_RDPS_GeopotentialHeight_IsbL-0900_RLatLon0.09_PT060H.grib2 2026-05-03 20:57 368K
20260503T18Z_MSC_RDPS_GeopotentialHeight_IsbL-0925_RLatLon0.09_PT060H.grib2 2026-05-03 20:57 370K
20260503T18Z_MSC_RDPS_GeopotentialHeight_IsbL-0950_RLatLon0.09_PT060H.grib2 2026-05-03 20:57 284K
20260503T18Z_MSC_RDPS_GeopotentialHeight_IsbL-0970_RLatLon0.09_PT060H.grib2 2026-05-03 20:57 287K
20260503T18Z_MSC_RDPS_GeopotentialHeight_IsbL-0985_RLatLon0.09_PT060H.grib2 2026-05-03 20:57 292K
20260503T18Z_MSC_RDPS_GeopotentialHeight_IsbL-1000_RLatLon0.09_PT060H.grib2 2026-05-03 20:57 300K
20260503T18Z_MSC_RDPS_GeopotentialHeight_IsbL-1015_RLatLon0.09_PT060H.grib2 2026-05-03 20:57 310K
20260503T18Z_MSC_RDPS_Humidex_Sfc_RLatLon0.09_PT060H.grib2 2026-05-03 20:57 2.4M
20260503T18Z_MSC_RDPS_IcePellets-Accum12h_Sfc_RLatLon0.09_PT060H.grib2 2026-05-03 20:57 17K
20260503T18Z_MSC_RDPS_IcePellets-Accum1h_Sfc_RLatLon0.09_PT060H.grib2 2026-05-03 20:57 9.2K
20260503T18Z_MSC_RDPS_IcePellets-Accum24h_Sfc_RLatLon0.09_PT060H.grib2 2026-05-03 20:57 28K
20260503T18Z_MSC_RDPS_IcePellets-Accum3h_Sfc_RLatLon0.09_PT060H.grib2 2026-05-03 20:57 12K
20260503T18Z_MSC_RDPS_IcePellets-Accum6h_Sfc_RLatLon0.09_PT060H.grib2 2026-05-03 20:57 14K
20260503T18Z_MSC_RDPS_IcePellets-Accum_Sfc_RLatLon0.09_PT060H.grib2 2026-05-03 20:57 43K
20260503T18Z_MSC_RDPS_KIndex_Sfc_RLatLon0.09_PT060H.grib2 2026-05-03 20:57 2.5M
20260503T18Z_MSC_RDPS_LatentHeatNetFlux_Sfc_RLatLon0.09_PT060H.grib2 2026-05-03 20:57 323K
20260503T18Z_MSC_RDPS_LiftedIndex-MU-VT_IsbL-0500_RLatLon0.09_PT060H.grib2 2026-05-03 20:57 2.4M
20260503T18Z_MSC_RDPS_NetLongwaveRadiationFlux-Accum_Sfc_RLatLon0.09_PT060H.grib2 2026-05-03 20:57 588K
20260503T18Z_MSC_RDPS_NetShortwaveRadiationFlux-Accum_Sfc_RLatLon0.09_PT060H.grib2 2026-05-03 20:57 601K
20260503T18Z_MSC_RDPS_PlanetaryBoundaryLayerHeight_Sfc_RLatLon0.09_PT060H.grib2 2026-05-03 20:57 1.1M
20260503T18Z_MSC_RDPS_Precip-Accum12h_Sfc_RLatLon0.09_PT060H.grib2 2026-05-03 20:57 1.8M
20260503T18Z_MSC_RDPS_Precip-Accum1h_Sfc_RLatLon0.09_PT060H.grib2 2026-05-03 20:57 1.3M
20260503T18Z_MSC_RDPS_Precip-Accum24h_Sfc_RLatLon0.09_PT060H.grib2 2026-05-03 20:57 2.0M
20260503T18Z_MSC_RDPS_Precip-Accum3h_Sfc_RLatLon0.09_PT060H.grib2 2026-05-03 20:57 1.5M
20260503T18Z_MSC_RDPS_Precip-Accum6h_Sfc_RLatLon0.09_PT060H.grib2 2026-05-03 20:57 1.5M
20260503T18Z_MSC_RDPS_Precip-Accum_Sfc_RLatLon0.09_PT060H.grib2 2026-05-03 20:57 2.2M
20260503T18Z_MSC_RDPS_PrecipRate_Sfc_RLatLon0.09_PT060H.grib2 2026-05-03 20:57 182K
20260503T18Z_MSC_RDPS_PrecipType-Instant_Sfc_RLatLon0.09_PT060H.grib2 2026-05-03 20:57 609K
20260503T18Z_MSC_RDPS_Pressure-Trend3h_Sfc_RLatLon0.09_PT060H.grib2 2026-05-03 20:57 1.2M
20260503T18Z_MSC_RDPS_Pressure_MSL_RLatLon0.09_PT060H.grib2 2026-05-03 20:57 325K
20260503T18Z_MSC_RDPS_Pressure_PVU-1.5_RLatLon0.09_PT060H.grib2 2026-05-03 20:57 2.5M
20260503T18Z_MSC_RDPS_Pressure_PVU-1_RLatLon0.09_PT060H.grib2 2026-05-03 20:57 2.4M
20260503T18Z_MSC_RDPS_Pressure_PVU-2_RLatLon0.09_PT060H.grib2 2026-05-03 20:57 2.4M
20260503T18Z_MSC_RDPS_Pressure_Sfc_RLatLon0.09_PT060H.grib2 2026-05-03 20:57 498K
20260503T18Z_MSC_RDPS_RadiativeTemp_Sfc_RLatLon0.09_PT060H.grib2 2026-05-03 20:57 297K
20260503T18Z_MSC_RDPS_Rain-Accum12h_Sfc_RLatLon0.09_PT060H.grib2 2026-05-03 20:57 1.3M
20260503T18Z_MSC_RDPS_Rain-Accum1h_Sfc_RLatLon0.09_PT060H.grib2 2026-05-03 20:57 630K
20260503T18Z_MSC_RDPS_Rain-Accum24h_Sfc_RLatLon0.09_PT060H.grib2 2026-05-03 20:57 1.5M
20260503T18Z_MSC_RDPS_Rain-Accum3h_Sfc_RLatLon0.09_PT060H.grib2 2026-05-03 20:57 754K
20260503T18Z_MSC_RDPS_Rain-Accum6h_Sfc_RLatLon0.09_PT060H.grib2 2026-05-03 20:57 1.0M
20260503T18Z_MSC_RDPS_Rain-Accum_Sfc_RLatLon0.09_PT060H.grib2 2026-05-03 20:57 1.8M
20260503T18Z_MSC_RDPS_RelativeHumidity_AGL-2m_RLatLon0.09_PT060H.grib2 2026-05-03 20:57 1.0M
20260503T18Z_MSC_RDPS_RelativeHumidity_IsbL-0010_RLatLon0.09_PT060H.grib2 2026-05-03 20:57 678K
20260503T18Z_MSC_RDPS_RelativeHumidity_IsbL-0020_RLatLon0.09_PT060H.grib2 2026-05-03 20:57 650K
20260503T18Z_MSC_RDPS_RelativeHumidity_IsbL-0030_RLatLon0.09_PT060H.grib2 2026-05-03 20:57 598K
20260503T18Z_MSC_RDPS_RelativeHumidity_IsbL-0050_RLatLon0.09_PT060H.grib2 2026-05-03 20:57 359K
20260503T18Z_MSC_RDPS_RelativeHumidity_IsbL-0100_RLatLon0.09_PT060H.grib2 2026-05-03 20:57 268K
20260503T18Z_MSC_RDPS_RelativeHumidity_IsbL-0150_RLatLon0.09_PT060H.grib2 2026-05-03 20:57 415K
20260503T18Z_MSC_RDPS_RelativeHumidity_IsbL-0175_RLatLon0.09_PT060H.grib2 2026-05-03 20:57 481K
20260503T18Z_MSC_RDPS_RelativeHumidity_IsbL-0200_RLatLon0.09_PT060H.grib2 2026-05-03 20:57 552K
20260503T18Z_MSC_RDPS_RelativeHumidity_IsbL-0225_RLatLon0.09_PT060H.grib2 2026-05-03 20:57 610K
20260503T18Z_MSC_RDPS_RelativeHumidity_IsbL-0250_RLatLon0.09_PT060H.grib2 2026-05-03 20:57 679K
20260503T18Z_MSC_RDPS_RelativeHumidity_IsbL-0275_RLatLon0.09_PT060H.grib2 2026-05-03 20:57 708K
20260503T18Z_MSC_RDPS_RelativeHumidity_IsbL-0300_RLatLon0.09_PT060H.grib2 2026-05-03 20:57 753K
20260503T18Z_MSC_RDPS_RelativeHumidity_IsbL-0350_RLatLon0.09_PT060H.grib2 2026-05-03 20:57 773K
20260503T18Z_MSC_RDPS_RelativeHumidity_IsbL-0400_RLatLon0.09_PT060H.grib2 2026-05-03 20:57 788K
20260503T18Z_MSC_RDPS_RelativeHumidity_IsbL-0450_RLatLon0.09_PT060H.grib2 2026-05-03 20:57 792K
20260503T18Z_MSC_RDPS_RelativeHumidity_IsbL-0500_RLatLon0.09_PT060H.grib2 2026-05-03 20:57 795K
20260503T18Z_MSC_RDPS_RelativeHumidity_IsbL-0550_RLatLon0.09_PT060H.grib2 2026-05-03 20:57 809K
20260503T18Z_MSC_RDPS_RelativeHumidity_IsbL-0600_RLatLon0.09_PT060H.grib2 2026-05-03 20:57 827K
20260503T18Z_MSC_RDPS_RelativeHumidity_IsbL-0650_RLatLon0.09_PT060H.grib2 2026-05-03 20:57 838K
20260503T18Z_MSC_RDPS_RelativeHumidity_IsbL-0700_RLatLon0.09_PT060H.grib2 2026-05-03 20:57 859K
20260503T18Z_MSC_RDPS_RelativeHumidity_IsbL-0750_RLatLon0.09_PT060H.grib2 2026-05-03 20:57 905K
20260503T18Z_MSC_RDPS_RelativeHumidity_IsbL-0800_RLatLon0.09_PT060H.grib2 2026-05-03 20:57 961K
20260503T18Z_MSC_RDPS_RelativeHumidity_IsbL-0850_RLatLon0.09_PT060H.grib2 2026-05-03 20:57 1.0M
20260503T18Z_MSC_RDPS_RelativeHumidity_IsbL-0875_RLatLon0.09_PT060H.grib2 2026-05-03 20:57 1.1M
20260503T18Z_MSC_RDPS_RelativeHumidity_IsbL-0900_RLatLon0.09_PT060H.grib2 2026-05-03 20:57 1.1M
20260503T18Z_MSC_RDPS_RelativeHumidity_IsbL-0925_RLatLon0.09_PT060H.grib2 2026-05-03 20:57 1.1M
20260503T18Z_MSC_RDPS_RelativeHumidity_IsbL-0950_RLatLon0.09_PT060H.grib2 2026-05-03 20:57 1.1M
20260503T18Z_MSC_RDPS_RelativeHumidity_IsbL-0970_RLatLon0.09_PT060H.grib2 2026-05-03 20:57 1.0M
20260503T18Z_MSC_RDPS_RelativeHumidity_IsbL-0985_RLatLon0.09_PT060H.grib2 2026-05-03 20:57 1.0M
20260503T18Z_MSC_RDPS_RelativeHumidity_IsbL-1000_RLatLon0.09_PT060H.grib2 2026-05-03 20:57 1.0M
20260503T18Z_MSC_RDPS_RelativeHumidity_IsbL-1015_RLatLon0.09_PT060H.grib2 2026-05-03 20:57 1.0M
20260503T18Z_MSC_RDPS_Runoff-Accum_Sfc_RLatLon0.09_PT060H.grib2 2026-05-03 20:57 62K
20260503T18Z_MSC_RDPS_SWEATIndex_Sfc_RLatLon0.09_PT060H.grib2 2026-05-03 20:57 2.4M
20260503T18Z_MSC_RDPS_SeeingIndex_EAtm_RLatLon0.09_PT060H.grib2 2026-05-03 20:57 1.0M
20260503T18Z_MSC_RDPS_SensibleHeatNetFlux_Sfc_RLatLon0.09_PT060H.grib2 2026-05-03 20:57 295K
20260503T18Z_MSC_RDPS_ShowalterIndex_IsbL-0500_RLatLon0.09_PT060H.grib2 2026-05-03 20:57 2.6M
20260503T18Z_MSC_RDPS_SkyTransparencyIndex_EAtm_RLatLon0.09_PT060H.grib2 2026-05-03 20:57 699K
20260503T18Z_MSC_RDPS_Snow-Accum12h_Sfc_RLatLon0.09_PT060H.grib2 2026-05-03 20:57 579K
20260503T18Z_MSC_RDPS_Snow-Accum1h_Sfc_RLatLon0.09_PT060H.grib2 2026-05-03 20:57 545K
20260503T18Z_MSC_RDPS_Snow-Accum24h_Sfc_RLatLon0.09_PT060H.grib2 2026-05-03 20:57 676K
20260503T18Z_MSC_RDPS_Snow-Accum3h_Sfc_RLatLon0.09_PT060H.grib2 2026-05-03 20:57 478K
20260503T18Z_MSC_RDPS_Snow-Accum6h_Sfc_RLatLon0.09_PT060H.grib2 2026-05-03 20:57 564K
20260503T18Z_MSC_RDPS_Snow-Accum_Sfc_RLatLon0.09_PT060H.grib2 2026-05-03 20:57 768K
20260503T18Z_MSC_RDPS_SnowDensity_Sfc_RLatLon0.09_PT060H.grib2 2026-05-03 20:57 174K
20260503T18Z_MSC_RDPS_SnowDepth_Sfc_RLatLon0.09_PT060H.grib2 2026-05-03 20:57 653K
20260503T18Z_MSC_RDPS_SoilTemp_DBS-0to10cm_RLatLon0.09_PT060H.grib2 2026-05-03 20:57 246K
20260503T18Z_MSC_RDPS_SoilTemp_Sfc_RLatLon0.09_PT060H.grib2 2026-05-03 20:57 276K
20260503T18Z_MSC_RDPS_SoilVolumetricIceContent_Sfc_RLatLon0.09_PT060H.grib2 2026-05-03 20:57 152K
20260503T18Z_MSC_RDPS_SoilVolumetricWaterContent_DBS-0to10cm_RLatLon0.09_PT060H.grib2 2026-05-03 20:57 280K
20260503T18Z_MSC_RDPS_SoilVolumetricWaterContent_DBS-0to1cm_RLatLon0.09_PT060H.grib2 2026-05-03 20:57 342K
20260503T18Z_MSC_RDPS_SpecificHumidity_AGL-120m_RLatLon0.09_PT060H.grib2 2026-05-03 20:57 486K
20260503T18Z_MSC_RDPS_SpecificHumidity_AGL-2m_RLatLon0.09_PT060H.grib2 2026-05-03 20:57 650K
20260503T18Z_MSC_RDPS_SpecificHumidity_AGL-40m_RLatLon0.09_PT060H.grib2 2026-05-03 20:57 491K
20260503T18Z_MSC_RDPS_SpecificHumidity_AGL-80m_RLatLon0.09_PT060H.grib2 2026-05-03 20:57 487K
20260503T18Z_MSC_RDPS_SpecificHumidity_IsbL-0001_RLatLon0.09_PT060H.grib2 2026-05-03 20:57 366K
20260503T18Z_MSC_RDPS_SpecificHumidity_IsbL-0005_RLatLon0.09_PT060H.grib2 2026-05-03 20:57 370K
20260503T18Z_MSC_RDPS_SpecificHumidity_IsbL-0010_RLatLon0.09_PT060H.grib2 2026-05-03 20:57 399K
20260503T18Z_MSC_RDPS_SpecificHumidity_IsbL-0020_RLatLon0.09_PT060H.grib2 2026-05-03 20:57 378K
20260503T18Z_MSC_RDPS_SpecificHumidity_IsbL-0030_RLatLon0.09_PT060H.grib2 2026-05-03 20:57 369K
20260503T18Z_MSC_RDPS_SpecificHumidity_IsbL-0050_RLatLon0.09_PT060H.grib2 2026-05-03 20:57 479K
20260503T18Z_MSC_RDPS_SpecificHumidity_IsbL-0100_RLatLon0.09_PT060H.grib2 2026-05-03 20:57 414K
20260503T18Z_MSC_RDPS_SpecificHumidity_IsbL-0150_RLatLon0.09_PT060H.grib2 2026-05-03 20:57 456K
20260503T18Z_MSC_RDPS_SpecificHumidity_IsbL-0175_RLatLon0.09_PT060H.grib2 2026-05-03 20:57 444K
20260503T18Z_MSC_RDPS_SpecificHumidity_IsbL-0200_RLatLon0.09_PT060H.grib2 2026-05-03 20:57 453K
20260503T18Z_MSC_RDPS_SpecificHumidity_IsbL-0225_RLatLon0.09_PT060H.grib2 2026-05-03 20:57 449K
20260503T18Z_MSC_RDPS_SpecificHumidity_IsbL-0250_RLatLon0.09_PT060H.grib2 2026-05-03 20:57 556K
20260503T18Z_MSC_RDPS_SpecificHumidity_IsbL-0275_RLatLon0.09_PT060H.grib2 2026-05-03 20:57 476K
20260503T18Z_MSC_RDPS_SpecificHumidity_IsbL-0300_RLatLon0.09_PT060H.grib2 2026-05-03 20:57 576K
20260503T18Z_MSC_RDPS_SpecificHumidity_IsbL-0350_RLatLon0.09_PT060H.grib2 2026-05-03 20:57 544K
20260503T18Z_MSC_RDPS_SpecificHumidity_IsbL-0400_RLatLon0.09_PT060H.grib2 2026-05-03 20:57 525K
20260503T18Z_MSC_RDPS_SpecificHumidity_IsbL-0450_RLatLon0.09_PT060H.grib2 2026-05-03 20:57 573K
20260503T18Z_MSC_RDPS_SpecificHumidity_IsbL-0500_RLatLon0.09_PT060H.grib2 2026-05-03 20:57 504K
20260503T18Z_MSC_RDPS_SpecificHumidity_IsbL-0550_RLatLon0.09_PT060H.grib2 2026-05-03 20:57 575K
20260503T18Z_MSC_RDPS_SpecificHumidity_IsbL-0600_RLatLon0.09_PT060H.grib2 2026-05-03 20:57 626K
20260503T18Z_MSC_RDPS_SpecificHumidity_IsbL-0650_RLatLon0.09_PT060H.grib2 2026-05-03 20:57 540K
20260503T18Z_MSC_RDPS_SpecificHumidity_IsbL-0700_RLatLon0.09_PT060H.grib2 2026-05-03 20:57 580K
20260503T18Z_MSC_RDPS_SpecificHumidity_IsbL-0750_RLatLon0.09_PT060H.grib2 2026-05-03 20:57 632K
20260503T18Z_MSC_RDPS_SpecificHumidity_IsbL-0800_RLatLon0.09_PT060H.grib2 2026-05-03 20:57 712K
20260503T18Z_MSC_RDPS_SpecificHumidity_IsbL-0850_RLatLon0.09_PT060H.grib2 2026-05-03 20:57 800K
20260503T18Z_MSC_RDPS_SpecificHumidity_IsbL-0875_RLatLon0.09_PT060H.grib2 2026-05-03 20:57 828K
20260503T18Z_MSC_RDPS_SpecificHumidity_IsbL-0900_RLatLon0.09_PT060H.grib2 2026-05-03 20:57 838K
20260503T18Z_MSC_RDPS_SpecificHumidity_IsbL-0925_RLatLon0.09_PT060H.grib2 2026-05-03 20:57 841K
20260503T18Z_MSC_RDPS_SpecificHumidity_IsbL-0950_RLatLon0.09_PT060H.grib2 2026-05-03 20:57 840K
20260503T18Z_MSC_RDPS_SpecificHumidity_IsbL-0970_RLatLon0.09_PT060H.grib2 2026-05-03 20:57 691K
20260503T18Z_MSC_RDPS_SpecificHumidity_IsbL-0985_RLatLon0.09_PT060H.grib2 2026-05-03 20:57 683K
20260503T18Z_MSC_RDPS_SpecificHumidity_IsbL-1000_RLatLon0.09_PT060H.grib2 2026-05-03 20:57 675K
20260503T18Z_MSC_RDPS_SpecificHumidity_IsbL-1015_RLatLon0.09_PT060H.grib2 2026-05-03 20:57 665K
20260503T18Z_MSC_RDPS_SpecificHumidity_Sfc_RLatLon0.09_PT060H.grib2 2026-05-03 20:57 295K
20260503T18Z_MSC_RDPS_StormRelativeHelicity_EtaL-10000_RLatLon0.09_PT060H.grib2 2026-05-03 20:57 1.1M
20260503T18Z_MSC_RDPS_StormSeverityIndex_EtaL-10000_RLatLon0.09_PT060H.grib2 2026-05-03 20:57 1.2M
20260503T18Z_MSC_RDPS_Thickness_IsbL-0850to0700_RLatLon0.09_PT060H.grib2 2026-05-03 20:57 177K
20260503T18Z_MSC_RDPS_Thickness_IsbL-1000to0500_RLatLon0.09_PT060H.grib2 2026-05-03 20:57 197K
20260503T18Z_MSC_RDPS_Thickness_IsbL-1000to0850_RLatLon0.09_PT060H.grib2 2026-05-03 20:57 183K
20260503T18Z_MSC_RDPS_TotalCloudCover_Sfc_RLatLon0.09_PT060H.grib2 2026-05-03 20:57 658K
20260503T18Z_MSC_RDPS_TotalTotalsIndex_Sfc_RLatLon0.09_PT060H.grib2 2026-05-03 20:57 2.4M
20260503T18Z_MSC_RDPS_UVIndex-ClearSky_Sfc_RLatLon0.09_PT060H.grib2 2026-05-03 20:57 131K
20260503T18Z_MSC_RDPS_UVIndex_Sfc_RLatLon0.09_PT060H.grib2 2026-05-03 20:57 217K
20260503T18Z_MSC_RDPS_UpwardLongwaveRadiationFlux_NTAtm_RLatLon0.09_PT060H.grib2 2026-05-03 20:57 479K
20260503T18Z_MSC_RDPS_UpwardShortwaveRadiationFlux_NTAtm_RLatLon0.09_PT060H.grib2 2026-05-03 20:57 142K
20260503T18Z_MSC_RDPS_VerticalVelocity_IsbL-0250_RLatLon0.09_PT060H.grib2 2026-05-03 20:57 549K
20260503T18Z_MSC_RDPS_VerticalVelocity_IsbL-0500_RLatLon0.09_PT060H.grib2 2026-05-03 20:57 549K
20260503T18Z_MSC_RDPS_VerticalVelocity_IsbL-0700_RLatLon0.09_PT060H.grib2 2026-05-03 20:57 594K
20260503T18Z_MSC_RDPS_VerticalVelocity_IsbL-0850_RLatLon0.09_PT060H.grib2 2026-05-03 20:57 696K
20260503T18Z_MSC_RDPS_VerticalWindShear_EtaL-6500_RLatLon0.09_PT060H.grib2 2026-05-03 20:57 1.2M
20260503T18Z_MSC_RDPS_WindChill_Sfc_RLatLon0.09_PT060H.grib2 2026-05-03 20:57 1.1M
20260503T18Z_MSC_RDPS_WindDir_AGL-10m_RLatLon0.09_PT060H.grib2 2026-05-03 20:57 945K
20260503T18Z_MSC_RDPS_WindDir_AGL-120m_RLatLon0.09_PT060H.grib2 2026-05-03 20:57 580K
20260503T18Z_MSC_RDPS_WindDir_AGL-40m_RLatLon0.09_PT060H.grib2 2026-05-03 20:57 614K
20260503T18Z_MSC_RDPS_WindDir_AGL-80m_RLatLon0.09_PT060H.grib2 2026-05-03 20:57 593K
20260503T18Z_MSC_RDPS_WindDir_IsbL-0001_RLatLon0.09_PT060H.grib2 2026-05-03 20:57 313K
20260503T18Z_MSC_RDPS_WindDir_IsbL-0005_RLatLon0.09_PT060H.grib2 2026-05-03 20:57 367K
20260503T18Z_MSC_RDPS_WindDir_IsbL-0010_RLatLon0.09_PT060H.grib2 2026-05-03 20:57 391K
20260503T18Z_MSC_RDPS_WindDir_IsbL-0020_RLatLon0.09_PT060H.grib2 2026-05-03 20:57 404K
20260503T18Z_MSC_RDPS_WindDir_IsbL-0030_RLatLon0.09_PT060H.grib2 2026-05-03 20:57 415K
20260503T18Z_MSC_RDPS_WindDir_IsbL-0050_RLatLon0.09_PT060H.grib2 2026-05-03 20:57 426K
20260503T18Z_MSC_RDPS_WindDir_IsbL-0100_RLatLon0.09_PT060H.grib2 2026-05-03 20:57 414K
20260503T18Z_MSC_RDPS_WindDir_IsbL-0150_RLatLon0.09_PT060H.grib2 2026-05-03 20:57 416K
20260503T18Z_MSC_RDPS_WindDir_IsbL-0175_RLatLon0.09_PT060H.grib2 2026-05-03 20:57 436K
20260503T18Z_MSC_RDPS_WindDir_IsbL-0200_RLatLon0.09_PT060H.grib2 2026-05-03 20:57 451K
20260503T18Z_MSC_RDPS_WindDir_IsbL-0225_RLatLon0.09_PT060H.grib2 2026-05-03 20:57 449K
20260503T18Z_MSC_RDPS_WindDir_IsbL-0250_RLatLon0.09_PT060H.grib2 2026-05-03 20:57 452K
20260503T18Z_MSC_RDPS_WindDir_IsbL-0275_RLatLon0.09_PT060H.grib2 2026-05-03 20:57 468K
20260503T18Z_MSC_RDPS_WindDir_IsbL-0300_RLatLon0.09_PT060H.grib2 2026-05-03 20:57 470K
20260503T18Z_MSC_RDPS_WindDir_IsbL-0350_RLatLon0.09_PT060H.grib2 2026-05-03 20:57 501K
20260503T18Z_MSC_RDPS_WindDir_IsbL-0400_RLatLon0.09_PT060H.grib2 2026-05-03 20:57 524K
20260503T18Z_MSC_RDPS_WindDir_IsbL-0450_RLatLon0.09_PT060H.grib2 2026-05-03 20:57 542K
20260503T18Z_MSC_RDPS_WindDir_IsbL-0500_RLatLon0.09_PT060H.grib2 2026-05-03 20:57 545K
20260503T18Z_MSC_RDPS_WindDir_IsbL-0550_RLatLon0.09_PT060H.grib2 2026-05-03 20:57 555K
20260503T18Z_MSC_RDPS_WindDir_IsbL-0600_RLatLon0.09_PT060H.grib2 2026-05-03 20:57 578K
20260503T18Z_MSC_RDPS_WindDir_IsbL-0650_RLatLon0.09_PT060H.grib2 2026-05-03 20:57 624K
20260503T18Z_MSC_RDPS_WindDir_IsbL-0700_RLatLon0.09_PT060H.grib2 2026-05-03 20:57 670K
20260503T18Z_MSC_RDPS_WindDir_IsbL-0750_RLatLon0.09_PT060H.grib2 2026-05-03 20:57 709K
20260503T18Z_MSC_RDPS_WindDir_IsbL-0800_RLatLon0.09_PT060H.grib2 2026-05-03 20:57 772K
20260503T18Z_MSC_RDPS_WindDir_IsbL-0850_RLatLon0.09_PT060H.grib2 2026-05-03 20:57 855K
20260503T18Z_MSC_RDPS_WindDir_IsbL-0875_RLatLon0.09_PT060H.grib2 2026-05-03 20:57 883K
20260503T18Z_MSC_RDPS_WindDir_IsbL-0900_RLatLon0.09_PT060H.grib2 2026-05-03 20:57 893K
20260503T18Z_MSC_RDPS_WindDir_IsbL-0925_RLatLon0.09_PT060H.grib2 2026-05-03 20:57 899K
20260503T18Z_MSC_RDPS_WindDir_IsbL-0950_RLatLon0.09_PT060H.grib2 2026-05-03 20:57 895K
20260503T18Z_MSC_RDPS_WindDir_IsbL-0970_RLatLon0.09_PT060H.grib2 2026-05-03 20:57 899K
20260503T18Z_MSC_RDPS_WindDir_IsbL-0985_RLatLon0.09_PT060H.grib2 2026-05-03 20:57 905K
20260503T18Z_MSC_RDPS_WindDir_IsbL-1000_RLatLon0.09_PT060H.grib2 2026-05-03 20:57 918K
20260503T18Z_MSC_RDPS_WindDir_IsbL-1015_RLatLon0.09_PT060H.grib2 2026-05-03 20:57 935K
20260503T18Z_MSC_RDPS_WindGust-Max_AGL-10m_RLatLon0.09_PT060H.grib2 2026-05-03 20:57 1.0M
20260503T18Z_MSC_RDPS_WindGust-Min_AGL-10m_RLatLon0.09_PT060H.grib2 2026-05-03 20:57 1.0M
20260503T18Z_MSC_RDPS_WindGust_AGL-10m_RLatLon0.09_PT060H.grib2 2026-05-03 20:57 1.0M
20260503T18Z_MSC_RDPS_WindSpeed_AGL-10m_RLatLon0.09_PT060H.grib2 2026-05-03 20:57 844K
20260503T18Z_MSC_RDPS_WindSpeed_AGL-120m_RLatLon0.09_PT060H.grib2 2026-05-03 20:57 541K
20260503T18Z_MSC_RDPS_WindSpeed_AGL-40m_RLatLon0.09_PT060H.grib2 2026-05-03 20:57 545K
20260503T18Z_MSC_RDPS_WindSpeed_AGL-80m_RLatLon0.09_PT060H.grib2 2026-05-03 20:57 542K
20260503T18Z_MSC_RDPS_WindSpeed_IsbL-0001_RLatLon0.09_PT060H.grib2 2026-05-03 20:57 333K
20260503T18Z_MSC_RDPS_WindSpeed_IsbL-0005_RLatLon0.09_PT060H.grib2 2026-05-03 20:57 384K
20260503T18Z_MSC_RDPS_WindSpeed_IsbL-0010_RLatLon0.09_PT060H.grib2 2026-05-03 20:57 364K
20260503T18Z_MSC_RDPS_WindSpeed_IsbL-0020_RLatLon0.09_PT060H.grib2 2026-05-03 20:57 416K
20260503T18Z_MSC_RDPS_WindSpeed_IsbL-0030_RLatLon0.09_PT060H.grib2 2026-05-03 20:57 318K
20260503T18Z_MSC_RDPS_WindSpeed_IsbL-0050_RLatLon0.09_PT060H.grib2 2026-05-03 20:57 350K
20260503T18Z_MSC_RDPS_WindSpeed_IsbL-0100_RLatLon0.09_PT060H.grib2 2026-05-03 20:57 473K
20260503T18Z_MSC_RDPS_WindSpeed_IsbL-0150_RLatLon0.09_PT060H.grib2 2026-05-03 20:57 377K
20260503T18Z_MSC_RDPS_WindSpeed_IsbL-0175_RLatLon0.09_PT060H.grib2 2026-05-03 20:57 424K
20260503T18Z_MSC_RDPS_WindSpeed_IsbL-0200_RLatLon0.09_PT060H.grib2 2026-05-03 20:57 437K
20260503T18Z_MSC_RDPS_WindSpeed_IsbL-0225_RLatLon0.09_PT060H.grib2 2026-05-03 20:57 441K
20260503T18Z_MSC_RDPS_WindSpeed_IsbL-0250_RLatLon0.09_PT060H.grib2 2026-05-03 20:57 444K
20260503T18Z_MSC_RDPS_WindSpeed_IsbL-0275_RLatLon0.09_PT060H.grib2 2026-05-03 20:57 462K
20260503T18Z_MSC_RDPS_WindSpeed_IsbL-0300_RLatLon0.09_PT060H.grib2 2026-05-03 20:57 460K
20260503T18Z_MSC_RDPS_WindSpeed_IsbL-0350_RLatLon0.09_PT060H.grib2 2026-05-03 20:57 477K
20260503T18Z_MSC_RDPS_WindSpeed_IsbL-0400_RLatLon0.09_PT060H.grib2 2026-05-03 20:57 481K
20260503T18Z_MSC_RDPS_WindSpeed_IsbL-0450_RLatLon0.09_PT060H.grib2 2026-05-03 20:57 464K
20260503T18Z_MSC_RDPS_WindSpeed_IsbL-0500_RLatLon0.09_PT060H.grib2 2026-05-03 20:57 461K
20260503T18Z_MSC_RDPS_WindSpeed_IsbL-0550_RLatLon0.09_PT060H.grib2 2026-05-03 20:57 462K
20260503T18Z_MSC_RDPS_WindSpeed_IsbL-0600_RLatLon0.09_PT060H.grib2 2026-05-03 20:57 588K
20260503T18Z_MSC_RDPS_WindSpeed_IsbL-0650_RLatLon0.09_PT060H.grib2 2026-05-03 20:57 608K
20260503T18Z_MSC_RDPS_WindSpeed_IsbL-0700_RLatLon0.09_PT060H.grib2 2026-05-03 20:57 631K
20260503T18Z_MSC_RDPS_WindSpeed_IsbL-0750_RLatLon0.09_PT060H.grib2 2026-05-03 20:57 702K
20260503T18Z_MSC_RDPS_WindSpeed_IsbL-0800_RLatLon0.09_PT060H.grib2 2026-05-03 20:57 751K
20260503T18Z_MSC_RDPS_WindSpeed_IsbL-0850_RLatLon0.09_PT060H.grib2 2026-05-03 20:57 821K
20260503T18Z_MSC_RDPS_WindSpeed_IsbL-0875_RLatLon0.09_PT060H.grib2 2026-05-03 20:57 847K
20260503T18Z_MSC_RDPS_WindSpeed_IsbL-0900_RLatLon0.09_PT060H.grib2 2026-05-03 20:57 862K
20260503T18Z_MSC_RDPS_WindSpeed_IsbL-0925_RLatLon0.09_PT060H.grib2 2026-05-03 20:57 876K
20260503T18Z_MSC_RDPS_WindSpeed_IsbL-0950_RLatLon0.09_PT060H.grib2 2026-05-03 20:57 876K
20260503T18Z_MSC_RDPS_WindSpeed_IsbL-0970_RLatLon0.09_PT060H.grib2 2026-05-03 20:57 874K
20260503T18Z_MSC_RDPS_WindSpeed_IsbL-0985_RLatLon0.09_PT060H.grib2 2026-05-03 20:57 865K
20260503T18Z_MSC_RDPS_WindSpeed_IsbL-1000_RLatLon0.09_PT060H.grib2 2026-05-03 20:57 852K
20260503T18Z_MSC_RDPS_WindSpeed_IsbL-1015_RLatLon0.09_PT060H.grib2 2026-05-03 20:57 844K
20260503T18Z_MSC_RDPS_WindU_AGL-10m_RLatLon0.09_PT060H.grib2 2026-05-03 20:57 432K
20260503T18Z_MSC_RDPS_WindU_AGL-120m_RLatLon0.09_PT060H.grib2 2026-05-03 20:57 535K
20260503T18Z_MSC_RDPS_WindU_AGL-40m_RLatLon0.09_PT060H.grib2 2026-05-03 20:57 538K
20260503T18Z_MSC_RDPS_WindU_AGL-80m_RLatLon0.09_PT060H.grib2 2026-05-03 20:57 537K
20260503T18Z_MSC_RDPS_WindU_IsbL-0001_RLatLon0.09_PT060H.grib2 2026-05-03 20:57 241K
20260503T18Z_MSC_RDPS_WindU_IsbL-0005_RLatLon0.09_PT060H.grib2 2026-05-03 20:57 283K
20260503T18Z_MSC_RDPS_WindU_IsbL-0010_RLatLon0.09_PT060H.grib2 2026-05-03 20:57 294K
20260503T18Z_MSC_RDPS_WindU_IsbL-0020_RLatLon0.09_PT060H.grib2 2026-05-03 20:57 312K
20260503T18Z_MSC_RDPS_WindU_IsbL-0030_RLatLon0.09_PT060H.grib2 2026-05-03 20:57 350K
20260503T18Z_MSC_RDPS_WindU_IsbL-0050_RLatLon0.09_PT060H.grib2 2026-05-03 20:57 380K
20260503T18Z_MSC_RDPS_WindU_IsbL-0100_RLatLon0.09_PT060H.grib2 2026-05-03 20:57 428K
20260503T18Z_MSC_RDPS_WindU_IsbL-0150_RLatLon0.09_PT060H.grib2 2026-05-03 20:57 394K
20260503T18Z_MSC_RDPS_WindU_IsbL-0175_RLatLon0.09_PT060H.grib2 2026-05-03 20:57 418K
20260503T18Z_MSC_RDPS_WindU_IsbL-0200_RLatLon0.09_PT060H.grib2 2026-05-03 20:57 333K
20260503T18Z_MSC_RDPS_WindU_IsbL-0225_RLatLon0.09_PT060H.grib2 2026-05-03 20:57 335K
20260503T18Z_MSC_RDPS_WindU_IsbL-0250_RLatLon0.09_PT060H.grib2 2026-05-03 20:57 335K
20260503T18Z_MSC_RDPS_WindU_IsbL-0275_RLatLon0.09_PT060H.grib2 2026-05-03 20:57 350K
20260503T18Z_MSC_RDPS_WindU_IsbL-0300_RLatLon0.09_PT060H.grib2 2026-05-03 20:57 348K
20260503T18Z_MSC_RDPS_WindU_IsbL-0350_RLatLon0.09_PT060H.grib2 2026-05-03 20:57 361K
20260503T18Z_MSC_RDPS_WindU_IsbL-0400_RLatLon0.09_PT060H.grib2 2026-05-03 20:57 468K
20260503T18Z_MSC_RDPS_WindU_IsbL-0450_RLatLon0.09_PT060H.grib2 2026-05-03 20:57 468K
20260503T18Z_MSC_RDPS_WindU_IsbL-0500_RLatLon0.09_PT060H.grib2 2026-05-03 20:57 468K
20260503T18Z_MSC_RDPS_WindU_IsbL-0550_RLatLon0.09_PT060H.grib2 2026-05-03 20:57 468K
20260503T18Z_MSC_RDPS_WindU_IsbL-0600_RLatLon0.09_PT060H.grib2 2026-05-03 20:57 477K
20260503T18Z_MSC_RDPS_WindU_IsbL-0650_RLatLon0.09_PT060H.grib2 2026-05-03 20:57 478K
20260503T18Z_MSC_RDPS_WindU_IsbL-0700_RLatLon0.09_PT060H.grib2 2026-05-03 20:57 499K
20260503T18Z_MSC_RDPS_WindU_IsbL-0750_RLatLon0.09_PT060H.grib2 2026-05-03 20:57 524K
20260503T18Z_MSC_RDPS_WindU_IsbL-0800_RLatLon0.09_PT060H.grib2 2026-05-03 20:57 567K
20260503T18Z_MSC_RDPS_WindU_IsbL-0850_RLatLon0.09_PT060H.grib2 2026-05-03 20:57 630K
20260503T18Z_MSC_RDPS_WindU_IsbL-0875_RLatLon0.09_PT060H.grib2 2026-05-03 20:57 652K
20260503T18Z_MSC_RDPS_WindU_IsbL-0900_RLatLon0.09_PT060H.grib2 2026-05-03 20:57 663K
20260503T18Z_MSC_RDPS_WindU_IsbL-0925_RLatLon0.09_PT060H.grib2 2026-05-03 20:57 671K
20260503T18Z_MSC_RDPS_WindU_IsbL-0950_RLatLon0.09_PT060H.grib2 2026-05-03 20:57 665K
20260503T18Z_MSC_RDPS_WindU_IsbL-0970_RLatLon0.09_PT060H.grib2 2026-05-03 20:57 800K
20260503T18Z_MSC_RDPS_WindU_IsbL-0985_RLatLon0.09_PT060H.grib2 2026-05-03 20:57 791K
20260503T18Z_MSC_RDPS_WindU_IsbL-1000_RLatLon0.09_PT060H.grib2 2026-05-03 20:57 785K
20260503T18Z_MSC_RDPS_WindU_IsbL-1015_RLatLon0.09_PT060H.grib2 2026-05-03 20:57 825K
20260503T18Z_MSC_RDPS_WindV_AGL-10m_RLatLon0.09_PT060H.grib2 2026-05-03 20:57 434K
20260503T18Z_MSC_RDPS_WindV_AGL-120m_RLatLon0.09_PT060H.grib2 2026-05-03 20:57 419K
20260503T18Z_MSC_RDPS_WindV_AGL-40m_RLatLon0.09_PT060H.grib2 2026-05-03 20:57 540K
20260503T18Z_MSC_RDPS_WindV_AGL-80m_RLatLon0.09_PT060H.grib2 2026-05-03 20:57 421K
20260503T18Z_MSC_RDPS_WindV_IsbL-0001_RLatLon0.09_PT060H.grib2 2026-05-03 20:57 247K
20260503T18Z_MSC_RDPS_WindV_IsbL-0005_RLatLon0.09_PT060H.grib2 2026-05-03 20:57 287K
20260503T18Z_MSC_RDPS_WindV_IsbL-0010_RLatLon0.09_PT060H.grib2 2026-05-03 20:57 297K
20260503T18Z_MSC_RDPS_WindV_IsbL-0020_RLatLon0.09_PT060H.grib2 2026-05-03 20:57 315K
20260503T18Z_MSC_RDPS_WindV_IsbL-0030_RLatLon0.09_PT060H.grib2 2026-05-03 20:57 313K
20260503T18Z_MSC_RDPS_WindV_IsbL-0050_RLatLon0.09_PT060H.grib2 2026-05-03 20:57 345K
20260503T18Z_MSC_RDPS_WindV_IsbL-0100_RLatLon0.09_PT060H.grib2 2026-05-03 20:57 329K
20260503T18Z_MSC_RDPS_WindV_IsbL-0150_RLatLon0.09_PT060H.grib2 2026-05-03 20:57 392K
20260503T18Z_MSC_RDPS_WindV_IsbL-0175_RLatLon0.09_PT060H.grib2 2026-05-03 20:57 320K
20260503T18Z_MSC_RDPS_WindV_IsbL-0200_RLatLon0.09_PT060H.grib2 2026-05-03 20:57 331K
20260503T18Z_MSC_RDPS_WindV_IsbL-0225_RLatLon0.09_PT060H.grib2 2026-05-03 20:57 334K
20260503T18Z_MSC_RDPS_WindV_IsbL-0250_RLatLon0.09_PT060H.grib2 2026-05-03 20:57 337K
20260503T18Z_MSC_RDPS_WindV_IsbL-0275_RLatLon0.09_PT060H.grib2 2026-05-03 20:57 352K
20260503T18Z_MSC_RDPS_WindV_IsbL-0300_RLatLon0.09_PT060H.grib2 2026-05-03 20:57 350K
20260503T18Z_MSC_RDPS_WindV_IsbL-0350_RLatLon0.09_PT060H.grib2 2026-05-03 20:57 360K
20260503T18Z_MSC_RDPS_WindV_IsbL-0400_RLatLon0.09_PT060H.grib2 2026-05-03 20:57 364K
20260503T18Z_MSC_RDPS_WindV_IsbL-0450_RLatLon0.09_PT060H.grib2 2026-05-03 20:57 364K
20260503T18Z_MSC_RDPS_WindV_IsbL-0500_RLatLon0.09_PT060H.grib2 2026-05-03 20:57 467K
20260503T18Z_MSC_RDPS_WindV_IsbL-0550_RLatLon0.09_PT060H.grib2 2026-05-03 20:57 467K
20260503T18Z_MSC_RDPS_WindV_IsbL-0600_RLatLon0.09_PT060H.grib2 2026-05-03 20:57 474K
20260503T18Z_MSC_RDPS_WindV_IsbL-0650_RLatLon0.09_PT060H.grib2 2026-05-03 20:57 491K
20260503T18Z_MSC_RDPS_WindV_IsbL-0700_RLatLon0.09_PT060H.grib2 2026-05-03 20:57 511K
20260503T18Z_MSC_RDPS_WindV_IsbL-0750_RLatLon0.09_PT060H.grib2 2026-05-03 20:57 520K
20260503T18Z_MSC_RDPS_WindV_IsbL-0800_RLatLon0.09_PT060H.grib2 2026-05-03 20:57 562K
20260503T18Z_MSC_RDPS_WindV_IsbL-0850_RLatLon0.09_PT060H.grib2 2026-05-03 20:57 624K
20260503T18Z_MSC_RDPS_WindV_IsbL-0875_RLatLon0.09_PT060H.grib2 2026-05-03 20:57 646K
20260503T18Z_MSC_RDPS_WindV_IsbL-0900_RLatLon0.09_PT060H.grib2 2026-05-03 20:57 659K
20260503T18Z_MSC_RDPS_WindV_IsbL-0925_RLatLon0.09_PT060H.grib2 2026-05-03 20:57 668K
20260503T18Z_MSC_RDPS_WindV_IsbL-0950_RLatLon0.09_PT060H.grib2 2026-05-03 20:57 672K
20260503T18Z_MSC_RDPS_WindV_IsbL-0970_RLatLon0.09_PT060H.grib2 2026-05-03 20:57 662K
20260503T18Z_MSC_RDPS_WindV_IsbL-0985_RLatLon0.09_PT060H.grib2 2026-05-03 20:57 656K
20260503T18Z_MSC_RDPS_WindV_IsbL-1000_RLatLon0.09_PT060H.grib2 2026-05-03 20:57 649K
20260503T18Z_MSC_RDPS_WindV_IsbL-1015_RLatLon0.09_PT060H.grib2 2026-05-03 20:57 781K